Location: Bay Ridge
(40.6340°N, 74.0146°W)
Time: 23:17:35
(UTC+00:00)

Cosmos 1484 Rocket - Pass Details

Date: 15 November 2019
Orbit: 507 x 559 km, 97.4° (Epoch: 07 December)

Event Time Altitude Azimuth Distance (km) Brightness Sun altitude
Rises 10:42:24 0° 360° (N) 2,743 6.2 -11.6°
Reaches altitude 10° 10:44:44 10° 349° (NNW) 1,848 5.2 -11.1°
Maximum altitude 10:48:10 28° 289° (WNW) 1,064 3.7 -10.5°
Drops below altitude 10° 10:51:36 10° 230° (SW) 1,842 5.2 -9.9°
Sets 10:53:56 0° 219° (SW) 2,731 6.1 -9.5°
